Location: Carthage
(33.8834°N, 106.6595°W)
Time: 03:27:47
(UTC+00:00)

Cosmos 2322 Rocket - Pass Details

Date: 19 May 2026
Orbit: 831 x 850 km, 71.0° (Epoch: 9 June)

Event Time Altitude Azimuth Distance (km) Brightness Sun altitude
Rises 02:38:27 0° 3° (N) 3,405 5.7 -7.3°
Maximum altitude 02:44:30 10° 52° (NE) 2,471 4.4 -8.4°
Drops below altitude 10° 02:44:40 10° 54° (NE) 2,472 4.4 -8.4°
Enters shadow 02:48:19 - 87° (E) 2,880 4.5 -9.1°
